• In Hungary
  • List of Countries
  • For 7 days
  • Water Temperature
  • Satellite Maps
  • Weather Map
  • News
  • Weather Widgets
  • user-avatar
    Login

    Hourly Weather Weiden

    Today, 15 October, Monday

    Time Temperature Precipitation Wind Pressure Humidity
    00:00 +13°C° 0 mm 2 mps 725 mmHg 74%
    01:00 +12°C° 0 mm 1 mps 725 mmHg 78%
    02:00 +12°C° 0 mm 2 mps 725 mmHg 78%
    03:00 +10°C° 0 mm 2 mps 725 mmHg 78%
    04:00 +10°C° 0 mm 2 mps 725 mmHg 78%
    05:00 +10°C° 0 mm 2 mps 725 mmHg 79%
    06:00 +10°C° 0 mm 1 mps 725 mmHg 79%
    07:00 +11°C° 0 mm 1 mps 725 mmHg 77%
    08:00 +13°C° 0 mm 2 mps 726 mmHg 70%
    09:00 +15°C° 0 mm 2 mps 726 mmHg 62%
    10:00 +17°C° 0 mm 2 mps 726 mmHg 55%
    11:00 +18°C° 0 mm 2 mps 726 mmHg 52%
    12:00 +20°C° 0 mm 2 mps 726 mmHg 50%
    13:00 +21°C° 0 mm 2 mps 726 mmHg 47%
    14:00 +21°C° 0 mm 2 mps 726 mmHg 50%
    15:00 +20°C° 0 mm 2 mps 726 mmHg 54%
    16:00 +20°C° 0 mm 2 mps 725 mmHg 57%
    17:00 +19°C° 0 mm 1 mps 725 mmHg 62%
    18:00 +16°C° 0 mm 1 mps 725 mmHg 67%
    19:00 +14°C° 0 mm 1 mps 725 mmHg 73%
    20:00 +14°C° 0 mm 1 mps 726 mmHg 74%
    21:00 +13°C° 0 mm 1 mps 726 mmHg 76%
    22:00 +12°C° 0 mm 1 mps 726 mmHg 77%
    23:00 +11°C° 0 mm 0 mps 726 mmHg 79%

    Tomorrow, 16 October, Tuesday

    Time Temperature Precipitation Wind Pressure Humidity
    00:00 +11°C° 0 mm 0 mps 726 mmHg 80%
    01:00 +10°C° 0 mm 0 mps 726 mmHg 81%
    02:00 +10°C° 0 mm 0 mps 727 mmHg 82%
    03:00 +10°C° 0 mm 0 mps 727 mmHg 84%
    04:00 +9°C° 0 mm 0 mps 727 mmHg 85%
    05:00 +9°C° 0 mm 0 mps 727 mmHg 86%
    06:00 +10°C° 0 mm 1 mps 727 mmHg 87%
    07:00 +10°C° 0 mm 1 mps 728 mmHg 88%
    08:00 +12°C° 0 mm 1 mps 728 mmHg 80%
    09:00 +15°C° 0 mm 1 mps 728 mmHg 72%
    10:00 +18°C° 0 mm 1 mps 729 mmHg 63%
    11:00 +19°C° 0 mm 1 mps 729 mmHg 60%
    12:00 +21°C° 0 mm 1 mps 729 mmHg 56%
    13:00 +22°C° 0 mm 1 mps 729 mmHg 52%
    14:00 +22°C° 0 mm 1 mps 729 mmHg 55%
    15:00 +21°C° 0 mm 1 mps 728 mmHg 58%
    16:00 +21°C° 0 mm 1 mps 728 mmHg 61%
    17:00 +17°C° 0.1 mm 0 mps 728 mmHg 68%
    18:00 +15°C° 0.1 mm 0 mps 728 mmHg 76%
    19:00 +13°C° 0.1 mm 0 mps 728 mmHg 83%
    20:00 +12°C° 0 mm 0 mps 729 mmHg 85%
    21:00 +12°C° 0 mm 0 mps 729 mmHg 86%
    22:00 +11°C° 0 mm 0 mps 729 mmHg 87%
    23:00 +11°C° 0 mm 0 mps 729 mmHg 88%

    Day after tomorrow, 17 October, Wednesday

    Time Temperature Precipitation Wind Pressure Humidity
    00:00 +11°C° 0 mm 0 mps 729 mmHg 89%
    01:00 +10°C° 0 mm 0 mps 729 mmHg 90%
    02:00 +10°C° 0 mm 0 mps 729 mmHg 90%
    03:00 +10°C° 0 mm 0 mps 729 mmHg 90%
    04:00 +10°C° 0 mm 0 mps 728 mmHg 91%
    05:00 +10°C° 0 mm 0 mps 729 mmHg 91%
    06:00 +10°C° 0 mm 0 mps 729 mmHg 91%
    07:00 +9°C° 0 mm 0 mps 729 mmHg 91%
    08:00 +12°C° 0 mm 0 mps 729 mmHg 84%
    09:00 +14°C° 0 mm 0 mps 729 mmHg 76%
    10:00 +16°C° 0 mm 0 mps 729 mmHg 68%
    11:00 +17°C° 0 mm 0 mps 729 mmHg 63%
    12:00 +18°C° 0 mm 0 mps 729 mmHg 58%
    13:00 +20°C° 0 mm 0 mps 729 mmHg 54%
    14:00 +19°C° 0 mm 0 mps 728 mmHg 56%
    15:00 +21°C° 0 mm 1 mps 728 mmHg 59%
    16:00 +20°C° 0 mm 1 mps 728 mmHg 62%
    17:00 +18°C° 0 mm 1 mps 728 mmHg 68%
    18:00 +15°C° 0 mm 1 mps 728 mmHg 75%
    19:00 +14°C° 0 mm 1 mps 728 mmHg 81%
    20:00 +13°C° 0 mm 1 mps 728 mmHg 83%
    21:00 +13°C° 0 mm 1 mps 728 mmHg 85%
    22:00 +12°C° 0 mm 1 mps 728 mmHg 87%
    23:00 +12°C° 0 mm 1 mps 728 mmHg 88%

    18 October, Thursday

    Time Temperature Precipitation Wind Pressure Humidity
    00:00 +11°C° 0 mm 1 mps 728 mmHg 89%
    01:00 +11°C° 0 mm 1 mps 728 mmHg 90%
    02:00 +11°C° 0 mm 1 mps 728 mmHg 91%
    03:00 +11°C° 0 mm 1 mps 728 mmHg 92%
    04:00 +10°C° 0 mm 1 mps 728 mmHg 93%
    05:00 +10°C° 0 mm 1 mps 728 mmHg 93%
    06:00 +10°C° 0 mm 1 mps 728 mmHg 93%
    07:00 +10°C° 0 mm 1 mps 728 mmHg 94%
    08:00 +12°C° 0 mm 1 mps 728 mmHg 86%
    09:00 +14°C° 0 mm 1 mps 729 mmHg 78%
    10:00 +16°C° 0 mm 1 mps 729 mmHg 70%
    11:00 +18°C° 0 mm 1 mps 729 mmHg 66%
    12:00 +18°C° 0 mm 2 mps 729 mmHg 62%
    13:00 +19°C° 0 mm 2 mps 729 mmHg 58%
    14:00 +19°C° 0 mm 2 mps 729 mmHg 61%
    15:00 +18°C° 0 mm 2 mps 728 mmHg 64%
    16:00 +18°C° 0 mm 2 mps 728 mmHg 67%
    17:00 +16°C° 0 mm 2 mps 728 mmHg 74%
    18:00 +14°C° 0 mm 2 mps 729 mmHg 81%
    19:00 +13°C° 0 mm 2 mps 729 mmHg 87%
    20:00 +12°C° 0 mm 2 mps 729 mmHg 88%
    21:00 +12°C° 0 mm 2 mps 729 mmHg 89%
    22:00 +10°C° 0 mm 2 mps 730 mmHg 91%
    23:00 +11°C° 0 mm 1 mps 730 mmHg 91%

    19 October, Friday

    Time Temperature Precipitation Wind Pressure Humidity
    00:00 +11°C° 0 mm 1 mps 730 mmHg 92%
    01:00 +10°C° 0 mm 1 mps 730 mmHg 92%
    02:00 +10°C° 0 mm 1 mps 730 mmHg 93%
    03:00 +10°C° 0 mm 1 mps 730 mmHg 93%
    04:00 +10°C° 0 mm 1 mps 730 mmHg 94%
    05:00 +10°C° 0 mm 1 mps 730 mmHg 94%
    06:00 +9°C° 0 mm 1 mps 730 mmHg 94%
    07:00 +9°C° 0 mm 1 mps 730 mmHg 95%
    08:00 +11°C° 0 mm 1 mps 731 mmHg 87%
    09:00 +13°C° 0 mm 1 mps 731 mmHg 80%
    10:00 +15°C° 0 mm 2 mps 731 mmHg 73%
    11:00 +16°C° 0 mm 2 mps 731 mmHg 69%
    12:00 +17°C° 0 mm 2 mps 731 mmHg 65%
    13:00 +18°C° 0 mm 2 mps 731 mmHg 60%
    14:00 +17°C° 0 mm 2 mps 731 mmHg 63%
    15:00 +17°C° 0 mm 2 mps 731 mmHg 66%
    16:00 +16°C° 0 mm 2 mps 731 mmHg 69%
    17:00 +15°C° 0 mm 2 mps 731 mmHg 76%
    18:00 +13°C° 0 mm 2 mps 731 mmHg 83%
    19:00 +12°C° 0 mm 2 mps 731 mmHg 90%
    20:00 +11°C° 0 mm 1 mps 731 mmHg 91%
    21:00 +11°C° 0 mm 1 mps 732 mmHg 93%
    22:00 +11°C° 0 mm 1 mps 732 mmHg 94%
    23:00 +10°C° 0 mm 1 mps 732 mmHg 94%

    20 October, Saturday

    Time Temperature Precipitation Wind Pressure Humidity
    00:00 +10°C° 0 mm 1 mps 732 mmHg 94%
    01:00 +10°C° 0 mm 1 mps 732 mmHg 93%
    02:00 +10°C° 0 mm 1 mps 732 mmHg 94%
    03:00 +10°C° 0 mm 1 mps 732 mmHg 94%
    04:00 +9°C° 0 mm 1 mps 733 mmHg 95%
    05:00 +9°C° 0 mm 1 mps 733 mmHg 94%
    06:00 +8°C° 0 mm 1 mps 733 mmHg 94%
    07:00 +8°C° 0 mm 1 mps 733 mmHg 94%
    08:00 +10°C° 0 mm 1 mps 734 mmHg 85%
    09:00 +11°C° 0 mm 1 mps 734 mmHg 75%
    10:00 +13°C° 0 mm 1 mps 735 mmHg 66%
    11:00 +14°C° 0 mm 1 mps 735 mmHg 60%
    12:00 +15°C° 0 mm 1 mps 734 mmHg 54%
    13:00 +16°C° 0 mm 1 mps 734 mmHg 48%
    14:00 +15°C° 0 mm 1 mps 734 mmHg 50%
    15:00 +15°C° 0 mm 1 mps 734 mmHg 52%
    16:00 +14°C° 0 mm 1 mps 734 mmHg 54%
    17:00 +13°C° 0 mm 1 mps 734 mmHg 60%
    18:00 +11°C° 0 mm 1 mps 734 mmHg 66%
    19:00 +9°C° 0 mm 1 mps 735 mmHg 72%
    20:00 +8°C° 0 mm 1 mps 735 mmHg 74%
    21:00 +8°C° 0 mm 1 mps 735 mmHg 76%
    22:00 +7°C° 0 mm 1 mps 735 mmHg 79%
    23:00 +7°C° 0 mm 1 mps 735 mmHg 79%
    Show more